Retour au catalogue

STARLINK-5844

ActifCommunicationsVLEO
NORAD 57068·PAYLOAD·🇺🇸 United States

Lancé Jun 22, 2023 depuis Vandenberg Space Force Base

Loading…

Prochains Passages (prochaines 24 heures)

TLE

FraisSource: CelesTrak SupGP

Époque: Sep 15, 2026, 02:42 UTC

1 57068C 23088W   26258.11298611  .00054528  00000+0  19747-2 0  2580
2 57068  43.0008 124.4755 0001200 268.3091 329.3138 15.27557214    12

Suivez STARLINK-5844 en temps réel avec AllMySat

Download on the App Store